M I D A S
Marine Information and Data Acquisition System
Tripno 1714 of the Zeeleeuw from 2009-06-23 06:43:27 to 2009-06-23 14:36:06
Back to CruiseResearch ActivitiesStationsMapUnderway DataData graphs

EquipmentUnitsComment
TimeDGPSUTC
LatitudeDGPSDM.mWGS84
LongitudeDGPSDM.mWGS84
TemperatureSBE03/SBE38deg celciusITS90
ConductivitySBE21S/mITS90
SalinitySBE21 Practical Salinity Units
ChlorophylAChelsea fluorimeterg/lCalibrated in Aceton
Missing or incorrect values are displayed as -999
Sea surface data collected by the RV Zeeleeuw from 2009-06-23 06:50:02 to 2009-06-23 14:40:53
Time Latitude Longitude Temperature Conductivity Salinity ChlorophylA
2009-06-23 06:51:07 51°13.662 2°55.961 21.0886 0.062995 0.341822 0.53169
2009-06-23 06:52:07 51°13.662 2°55.956 21.0536 0.062995 0.341858 0.53169
2009-06-23 06:53:07 51°13.669 2°55.941 21.0729 0.062995 0.34187 0.53169
2009-06-23 06:54:07 51°13.688 2°55.888 21.0833 0.062995 0.341893 0.53169
2009-06-23 06:55:07 51°13.7 2°55.802 21.0944 0.062995 0.341917 0.53169
2009-06-23 06:56:06 51°13.7 2°55.739 21.1003 0.062995 0.341923 0.53169
2009-06-23 06:57:04 51°13.709 2°55.745 21.083 0.062995 0.341947 0.53169
2009-06-23 06:58:03 51°13.713 2°55.739 21.1246 0.062995 0.341941 0.53169
2009-06-23 06:59:03 51°13.752 2°55.706 21.1121 0.062995 0.341965 0.53169
2009-06-23 07:00:03 51°13.833 2°55.635 21.1038 0.062995 0.341989 0.496866
2009-06-23 07:01:03 51°13.931 2°55.558 21.1133 0.062995 0.342019 0.53169
2009-06-23 07:02:03 51°14.031 2°55.479 21.1023 0.062995 0.342049 0.53169
2009-06-23 07:03:03 51°14.121 2°55.411 21.134 0.062995 0.342067 0.53169
2009-06-23 07:04:04 51°14.214 2°55.329 21.1288 0.062995 0.342091 0.53169
2009-06-23 07:05:03 51°14.294 2°55.207 21.1301 0.062995 0.342103 0.53169
2009-06-23 07:06:03 51°14.386 2°55.022 21.1182 0.062995 0.342145 0.53169
2009-06-23 07:07:03 51°14.516 2°54.825 21.0894 0.062995 0.342151 0.53169
2009-06-23 07:08:03 51°14.675 2°54.667 21.0663 0.062995 0.342193 0.53169
2009-06-23 07:09:04 51°14.846 2°54.533 21.0845 0.062995 0.342211 0.53169
2009-06-23 07:10:04 51°15.011 2°54.403 21.0681 0.062995 0.342223 0.53169
2009-06-23 07:11:03 51°15.151 2°54.21 21.0447 0.062995 0.342253 0.53169
2009-06-23 07:12:03 51°15.266 2°53.965 21.0844 0.062995 0.342277 0.53169
2009-06-23 07:13:04 51°15.355 2°53.674 21.0437 0.062995 0.342289 0.53169
2009-06-23 07:14:04 51°15.447 2°53.389 21.069 0.062995 0.342313 0.53169
2009-06-23 07:15:03 51°15.541 2°53.109 21.0524 0.062995 0.342343 0.53169
2009-06-23 07:16:04 51°15.661 2°52.854 21.0363 0.062995 0.342349 0.53169
2009-06-23 07:17:03 51°15.827 2°52.739 21.0381 0.062995 0.342373 0.53169
2009-06-23 07:18:04 51°16.005 2°52.66 21.0207 0.062995 0.342391 0.566514
2009-06-23 07:19:04 51°16.178 2°52.641 21.0506 0.062995 0.342409 0.53169
2009-06-23 07:20:03 51°16.35 2°52.617 21.0424 0.062995 0.342433 0.566514
2009-06-23 07:21:03 51°16.527 2°52.596 21.0506 0.062995 0.342445 0.53169
2009-06-23 07:22:03 51°16.706 2°52.562 21.0501 0.062995 0.342457 0.53169
2009-06-23 07:23:03 51°16.88 2°52.521 21.0621 0.062995 0.342481 0.53169
2009-06-23 07:24:03 51°17.052 2°52.48 21.0881 0.062995 0.342499 0.53169
2009-06-23 07:25:03 51°17.225 2°52.441 21.0765 0.062995 0.342523 0.53169
2009-06-23 07:26:03 51°17.394 2°52.361 21.1 0.062995 0.342541 0.53169
2009-06-23 07:27:03 51°17.559 2°52.261 21.1059 0.062995 0.342559 0.53169
2009-06-23 07:28:03 51°17.727 2°52.16 21.1117 0.062995 0.342583 0.53169
2009-06-23 07:29:04 51°17.898 2°52.063 21.1161 0.062995 0.342595 0.53169
2009-06-23 07:30:03 51°18.064 2°51.972 21.1167 0.062995 0.34262 0.53169
2009-06-23 07:31:03 51°18.233 2°51.872 21.1248 0.062995 0.342638 0.53169
2009-06-23 07:32:03 51°18.403 2°51.772 21.1352 0.062995 0.342656 0.53169
2009-06-23 07:33:03 51°18.57 2°51.661 21.1296 0.062995 0.342686 0.53169
2009-06-23 07:34:03 51°18.738 2°51.539 21.1496 0.062995 0.34271 0.53169
2009-06-23 07:35:03 51°18.903 2°51.408 21.1594 0.062995 0.34274 0.53169
2009-06-23 07:36:03 51°19.067 2°51.269 21.1588 0.062995 0.342776 0.566514
2009-06-23 07:37:03 51°19.23 2°51.134 21.1789 0.062995 0.342812 0.53169
2009-06-23 07:38:03 51°19.395 2°50.999 21.1732 0.062995 0.342842 0.53169
2009-06-23 07:39:03 51°19.559 2°50.869 21.1913 0.062995 0.342885 0.53169
2009-06-23 07:40:03 51°19.723 2°50.741 21.1975 0.062995 0.342927 0.566514
2009-06-23 07:41:03 51°19.889 2°50.614 21.2144 0.062995 0.342963 0.53169
2009-06-23 07:42:03 51°20.057 2°50.485 21.2189 0.062995 0.343011 0.566514
2009-06-23 07:43:03 51°20.223 2°50.346 21.2244 0.062995 0.343047 0.566514
2009-06-23 07:44:03 51°20.391 2°50.207 21.2385 0.062995 0.34309 0.566514
2009-06-23 07:45:03 51°20.562 2°50.074 21.2305 0.062995 0.343126 0.566514
2009-06-23 07:46:03 51°20.734 2°49.942 21.2538 0.062892 0.34259 0.566514
2009-06-23 07:47:04 51°20.911 2°49.805 21.2543 0.062995 0.343204 0.566514
2009-06-23 07:48:03 51°21.082 2°49.673 21.2655 0.062995 0.343247 0.53169
2009-06-23 07:49:03 51°21.257 2°49.538 21.2712 0.062995 0.343283 0.566514
2009-06-23 07:50:03 51°21.432 2°49.409 21.2712 0.062892 0.342753 0.566514
2009-06-23 07:51:03 51°21.608 2°49.28 21.2951 0.062995 0.343367 0.566514
2009-06-23 07:52:03 51°21.784 2°49.149 21.2937 0.062995 0.343404 0.566514
2009-06-23 07:53:03 51°21.962 2°49.021 21.3209 0.062995 0.343446 0.566514
2009-06-23 07:54:03 51°22.142 2°48.894 21.3251 0.062892 0.342904 0.566514
2009-06-23 07:55:03 51°22.318 2°48.776 21.3378 0.062995 0.343519 0.566514
2009-06-23 07:56:03 51°22.487 2°48.665 21.3377 0.062995 0.343555 0.53169
2009-06-23 07:57:03 51°22.653 2°48.56 21.3425 0.062995 0.343579 0.566514
2009-06-23 07:58:03 51°22.818 2°48.449 21.3686 0.062995 0.343622 0.53169
2009-06-23 07:59:03 51°22.98 2°48.325 21.3776 0.062995 0.343646 0.566514
2009-06-23 08:00:03 51°23.144 2°48.202 21.3851 0.062995 0.343682 0.53169
2009-06-23 08:01:03 51°23.31 2°48.078 21.3889 0.062995 0.343719 0.566514
2009-06-23 08:02:03 51°23.477 2°47.949 21.3919 0.062995 0.343755 0.53169
2009-06-23 08:03:03 51°23.644 2°47.818 21.4125 0.062995 0.343797 0.566514
2009-06-23 08:04:03 51°23.812 2°47.69 21.4196 0.062995 0.343834 0.566514
2009-06-23 08:05:03 51°23.982 2°47.565 21.4239 0.062995 0.343876 0.53169
2009-06-23 08:06:03 51°24.151 2°47.437 21.4332 0.062995 0.343913 0.53169
2009-06-23 08:07:03 51°24.32 2°47.306 21.4273 0.062995 0.343955 0.566514
2009-06-23 08:08:03 51°24.489 2°47.178 21.4597 0.062995 0.344004 0.53169
2009-06-23 08:09:03 51°24.662 2°47.049 21.4756 0.062995 0.344058 0.53169
2009-06-23 08:10:03 51°24.835 2°46.914 21.4715 0.062995 0.344113 0.53169
2009-06-23 08:11:03 51°25.009 2°46.786 21.4843 0.062995 0.344168 0.566514
2009-06-23 08:12:03 51°25.181 2°46.659 21.5005 0.062995 0.344229 0.566514
2009-06-23 08:13:03 51°25.352 2°46.53 21.5057 0.062995 0.344283 0.53169
2009-06-23 08:14:03 51°25.522 2°46.405 21.5215 0.062995 0.34435 0.53169
2009-06-23 08:15:03 51°25.689 2°46.283 21.5404 0.062995 0.344405 0.566514
2009-06-23 08:16:03 51°25.857 2°46.158 21.5344 0.062995 0.344472 0.53169
2009-06-23 08:17:03 51°26.022 2°46.03 21.5389 0.062995 0.344533 0.53169
2009-06-23 08:18:03 51°26.189 2°45.903 21.5621 0.062995 0.344594 0.53169
2009-06-23 08:19:03 51°26.358 2°45.777 21.5663 0.062995 0.344667 0.53169
2009-06-23 08:20:03 51°26.527 2°45.649 21.5886 0.062995 0.344734 0.53169
2009-06-23 08:21:03 51°26.698 2°45.52 21.5888 0.063098 0.345376 0.53169
2009-06-23 08:22:03 51°26.871 2°45.394 21.6051 0.063098 0.345443 0.53169
2009-06-23 08:23:03 51°27.043 2°45.263 21.6117 0.063098 0.345511 0.53169
2009-06-23 08:24:03 51°27.214 2°45.127 21.6078 0.063098 0.345578 0.53169
2009-06-23 08:25:03 51°27.385 2°44.998 21.6104 0.063098 0.345645 0.53169
2009-06-23 08:26:03 51°27.556 2°44.865 21.6326 0.063098 0.345701 0.53169
2009-06-23 08:27:03 51°27.729 2°44.744 21.6384 0.063098 0.345768 0.53169
2009-06-23 08:28:03 51°27.902 2°44.629 21.6661 0.063098 0.345829 0.53169
2009-06-23 08:29:04 51°28.076 2°44.513 21.6523 0.063098 0.345891 0.53169
2009-06-23 08:30:03 51°28.243 2°44.4 21.6798 0.063098 0.345946 0.496866
2009-06-23 08:31:03 51°28.413 2°44.289 21.6795 0.063098 0.346008 0.53169
2009-06-23 08:32:03 51°28.584 2°44.18 21.6889 0.063098 0.346081 0.53169
2009-06-23 08:33:04 51°28.755 2°44.068 21.6909 0.063098 0.346143 0.496866
2009-06-23 08:34:03 51°28.923 2°43.964 21.7142 0.063098 0.346204 0.496866
2009-06-23 08:35:04 51°29.095 2°43.857 21.7285 0.063098 0.34626 0.496866
2009-06-23 08:36:03 51°29.26 2°43.749 21.7397 0.063098 0.346334 0.496866
2009-06-23 08:37:03 51°29.427 2°43.64 21.7437 0.063098 0.346395 0.496866
2009-06-23 08:38:03 51°29.594 2°43.536 21.7333 0.063098 0.346451 0.496866
2009-06-23 08:39:03 51°29.763 2°43.525 21.7225 0.063098 0.346525 0.496866
2009-06-23 08:40:03 51°29.92 2°43.591 21.7641 0.063098 0.346586 0.496866
2009-06-23 08:41:03 51°30.08 2°43.662 21.7688 0.062995 0.346047 0.496866
2009-06-23 08:42:03 51°30.241 2°43.72 21.783 0.062995 0.346108 0.496866
2009-06-23 08:43:03 51°30.405 2°43.774 21.7902 0.062995 0.346151 0.496866
2009-06-23 08:44:03 51°30.567 2°43.828 21.7789 0.062995 0.346195 0.496866
2009-06-23 08:45:03 51°30.73 2°43.877 21.7947 0.062995 0.346238 0.496866
2009-06-23 08:46:03 51°30.895 2°43.926 21.8055 0.062995 0.346287 0.462042
2009-06-23 08:47:03 51°31.058 2°43.977 21.8302 0.062995 0.34633 0.462042
2009-06-23 08:48:03 51°31.219 2°44.04 21.8306 0.062995 0.346373 0.462042
2009-06-23 08:49:03 51°31.38 2°44.106 21.8263 0.062995 0.346417 0.462042
2009-06-23 08:50:03 51°31.541 2°44.17 21.8572 0.062995 0.34646 0.462042
2009-06-23 08:51:03 51°31.701 2°44.234 21.8473 0.062995 0.346503 0.462042
2009-06-23 08:52:04 51°31.865 2°44.304 21.8716 0.062995 0.346546 0.462042
2009-06-23 08:53:03 51°32.022 2°44.37 21.8731 0.062995 0.346584 0.462042
2009-06-23 08:54:03 51°32.183 2°44.445 21.8754 0.062995 0.346614 0.462042
2009-06-23 08:55:03 51°32.34 2°44.529 21.9028 0.062995 0.346652 0.462042
2009-06-23 08:56:03 51°32.497 2°44.612 21.9066 0.062995 0.346682 0.462042
2009-06-23 08:57:03 51°32.652 2°44.697 21.9099 0.062892 0.346136 0.462042
2009-06-23 08:58:03 51°32.809 2°44.78 21.9209 0.062892 0.346173 0.462042
2009-06-23 08:59:03 51°32.965 2°44.865 21.9093 0.062892 0.34621 0.462042
2009-06-23 09:00:03 51°33.12 2°44.951 21.9212 0.062892 0.346241 0.427218
2009-06-23 09:01:03 51°33.276 2°45.031 21.9305 0.062892 0.346278 0.462042
2009-06-23 09:02:03 51°33.43 2°45.118 21.942 0.062892 0.346309 0.427218
2009-06-23 09:03:03 51°33.581 2°45.214 21.9535 0.062892 0.346352 0.462042
2009-06-23 09:04:03 51°33.731 2°45.307 21.9601 0.062892 0.346389 0.462042
2009-06-23 09:05:03 51°33.881 2°45.402 21.9768 0.062892 0.346426 0.462042
2009-06-23 09:06:03 51°34.031 2°45.491 21.9889 0.062892 0.346463 0.462042
2009-06-23 09:07:03 51°34.18 2°45.577 21.9889 0.062892 0.346501 0.462042
2009-06-23 09:08:03 51°34.33 2°45.668 21.9903 0.062892 0.346538 0.427218
2009-06-23 09:09:03 51°34.48 2°45.754 22.0002 0.062892 0.346569 0.462042
2009-06-23 09:10:04 51°34.633 2°45.844 22.0208 0.062892 0.3466 0.462042
2009-06-23 09:11:03 51°34.781 2°45.93 22.0219 0.062892 0.346637 0.462042
2009-06-23 09:12:04 51°34.933 2°46.02 22.0328 0.062892 0.346668 0.462042
2009-06-23 09:13:03 51°35.081 2°46.103 22.0292 0.06279 0.346108 0.462042
2009-06-23 09:14:03 51°35.23 2°46.192 22.0348 0.06279 0.346139 0.462042
2009-06-23 09:15:04 51°35.383 2°46.278 22.0617 0.06279 0.34617 0.462042
2009-06-23 09:16:03 51°35.532 2°46.36 22.0476 0.06279 0.346195 0.462042
2009-06-23 09:17:03 51°35.682 2°46.446 22.0755 0.06279 0.346219 0.462042
2009-06-23 09:18:03 51°35.834 2°46.532 22.085 0.06279 0.346244 0.462042
2009-06-23 09:19:03 51°35.987 2°46.61 22.071 0.06279 0.346269 0.462042
2009-06-23 09:20:04 51°36.141 2°46.695 22.0761 0.06279 0.3463 0.462042
2009-06-23 09:21:03 51°36.291 2°46.779 22.0767 0.06279 0.346325 0.462042
2009-06-23 09:22:03 51°36.444 2°46.869 22.1068 0.06279 0.34635 0.462042
2009-06-23 09:23:03 51°36.597 2°46.955 22.1196 0.06279 0.346374 0.462042
2009-06-23 09:24:03 51°36.75 2°47.043 22.1135 0.06279 0.346399 0.462042
2009-06-23 09:25:03 51°36.905 2°47.135 22.1219 0.06279 0.346424 0.462042
2009-06-23 09:26:04 51°37.062 2°47.23 22.1204 0.06279 0.346443 0.462042
2009-06-23 09:27:03 51°37.215 2°47.313 22.1388 0.06279 0.346467 0.462042
2009-06-23 09:28:04 51°37.372 2°47.406 22.1486 0.06279 0.346486 0.496866
2009-06-23 09:29:03 51°37.525 2°47.498 22.1518 0.06279 0.346517 0.496866
2009-06-23 09:30:04 51°37.684 2°47.596 22.1559 0.06279 0.346542 0.496866
2009-06-23 09:31:03 51°37.838 2°47.695 22.1693 0.06279 0.346567 0.496866
2009-06-23 09:32:03 51°37.993 2°47.798 22.1707 0.062687 0.346006 0.496866
2009-06-23 09:33:04 51°38.152 2°47.9 22.1823 0.062687 0.346031 0.496866
2009-06-23 09:34:03 51°38.306 2°47.998 22.1772 0.062687 0.346056 0.496866
2009-06-23 09:35:03 51°38.461 2°48.096 22.1909 0.062687 0.34608 0.496866
2009-06-23 09:36:03 51°38.616 2°48.192 22.1972 0.062687 0.346105 0.496866
2009-06-23 09:37:04 51°38.772 2°48.293 22.217 0.062687 0.346124 0.496866
2009-06-23 09:38:03 51°38.922 2°48.395 22.205 0.062687 0.346149 0.496866
2009-06-23 09:39:03 51°39.078 2°48.489 22.2125 0.062687 0.346173 0.496866
2009-06-23 09:40:03 51°39.238 2°48.569 22.2334 0.062687 0.346192 0.496866
2009-06-23 09:41:03 51°39.4 2°48.632 22.2437 0.062687 0.346211 0.496866
2009-06-23 09:42:04 51°39.564 2°48.7 22.2426 0.062687 0.346229 0.53169
2009-06-23 09:43:03 51°39.725 2°48.761 22.2738 0.062687 0.346267 0.53169
2009-06-23 09:44:04 51°39.897 2°48.777 22.2412 0.062687 0.346298 0.53169
2009-06-23 09:45:03 51°40.064 2°48.786 22.2345 0.062687 0.346341 0.53169
2009-06-23 09:46:04 51°40.238 2°48.8 22.2702 0.062687 0.346397 0.53169
2009-06-23 09:47:03 51°40.406 2°48.8 22.2814 0.062687 0.346459 0.53169
2009-06-23 09:48:03 51°40.578 2°48.756 22.2909 0.062687 0.346503 0.53169
2009-06-23 09:49:03 51°40.747 2°48.684 22.3413 0.062584 0.345978 0.53169
2009-06-23 09:50:03 51°40.877 2°48.483 22.3182 0.062584 0.346034 0.566514
2009-06-23 09:51:04 51°40.958 2°48.199 22.3019 0.062584 0.346096 0.53169
2009-06-23 09:52:04 51°40.948 2°47.875 22.3443 0.062584 0.346165 0.566514
2009-06-23 09:53:04 51°40.808 2°47.641 22.3237 0.062584 0.346184 0.566514
2009-06-23 09:54:04 51°40.609 2°47.512 22.3231 0.062584 0.346246 0.566514
2009-06-23 09:55:04 51°40.404 2°47.407 22.3063 0.062584 0.346296 0.566514
2009-06-23 09:56:03 51°40.203 2°47.295 22.3092 0.062584 0.346333 0.566514
2009-06-23 09:57:04 51°39.994 2°47.18 22.3248 0.062584 0.346358 0.566514
2009-06-23 09:58:04 51°39.789 2°47.069 22.3502 0.062481 0.345789 0.566514
2009-06-23 09:59:04 51°39.586 2°46.957 22.3636 0.062481 0.345808 0.601338
2009-06-23 10:00:04 51°39.382 2°46.846 22.326 0.062481 0.345839 0.601338
2009-06-23 10:01:04 51°39.18 2°46.737 22.3588 0.062481 0.345864 0.601338
2009-06-23 10:02:04 51°38.977 2°46.629 22.3735 0.062481 0.345907 0.601338
2009-06-23 10:03:04 51°38.776 2°46.506 22.3418 0.062481 0.345951 0.601338
2009-06-23 10:04:04 51°38.576 2°46.382 22.3893 0.062481 0.345932 0.601338
2009-06-23 10:05:04 51°38.375 2°46.26 22.3846 0.062481 0.345932 0.636162
2009-06-23 10:06:04 51°38.172 2°46.141 22.3892 0.062481 0.345907 0.636162
2009-06-23 10:07:04 51°37.973 2°46.01 22.4006 0.062481 0.345932 0.636162
2009-06-23 10:08:04 51°37.775 2°45.874 22.3916 0.062481 0.345957 0.636162
2009-06-23 10:09:04 51°37.579 2°45.733 22.4053 0.062481 0.345976 0.636162
2009-06-23 10:10:04 51°37.382 2°45.591 22.3955 0.062481 0.346007 0.636162
2009-06-23 10:11:04 51°37.188 2°45.443 22.4317 0.062481 0.346026 0.670986
2009-06-23 10:12:04 51°36.994 2°45.297 22.4156 0.062481 0.346044 0.670986
2009-06-23 10:13:04 51°36.798 2°45.148 22.4255 0.062481 0.346069 0.670986
2009-06-23 10:14:04 51°36.602 2°44.999 22.4464 0.062481 0.346076 0.670986
2009-06-23 10:15:04 51°36.407 2°44.851 22.4489 0.062481 0.346094 0.70581
2009-06-23 10:16:04 51°36.213 2°44.701 22.4352 0.062481 0.3461 0.70581
2009-06-23 10:17:04 51°36.02 2°44.548 22.4415 0.062481 0.346107 0.70581
2009-06-23 10:18:04 51°35.826 2°44.397 22.4238 0.062481 0.346113 0.70581
2009-06-23 10:19:04 51°35.633 2°44.245 22.4631 0.062481 0.346125 0.740634
2009-06-23 10:20:04 51°35.44 2°44.097 22.4678 0.062481 0.34615 0.740634
2009-06-23 10:21:04 51°35.247 2°43.947 22.4835 0.062481 0.346157 0.740634
2009-06-23 10:22:04 51°35.057 2°43.788 22.4997 0.062481 0.346175 0.775459
2009-06-23 10:23:04 51°34.867 2°43.626 22.512 0.062481 0.346188 0.740634
2009-06-23 10:24:04 51°34.676 2°43.471 22.5138 0.062481 0.346194 0.775459
2009-06-23 10:25:04 51°34.486 2°43.312 22.5042 0.062481 0.346206 0.775459
2009-06-23 10:26:04 51°34.295 2°43.154 22.4733 0.062481 0.346219 0.775459
2009-06-23 10:27:04 51°34.103 2°43.002 22.5092 0.062481 0.346238 0.775459
2009-06-23 10:28:04 51°33.911 2°42.849 22.5213 0.062481 0.346244 0.810283
2009-06-23 10:29:04 51°33.719 2°42.692 22.5136 0.062481 0.346256 0.810283
2009-06-23 10:30:04 51°33.528 2°42.533 22.5101 0.062481 0.346269 0.810283
2009-06-23 10:31:04 51°33.337 2°42.372 22.5279 0.062481 0.346288 0.810283
2009-06-23 10:32:04 51°33.144 2°42.216 22.4979 0.062481 0.346294 0.845107
2009-06-23 10:33:04 51°32.966 2°42.025 22.5273 0.062481 0.3463 0.845107
2009-06-23 10:34:04 51°32.852 2°41.747 22.5209 0.062481 0.346312 0.845107
2009-06-23 10:35:04 51°32.884 2°41.444 22.5228 0.062481 0.346319 0.845107
2009-06-23 10:36:04 51°33.031 2°41.276 22.5144 0.062481 0.346331 0.845107
2009-06-23 10:37:04 51°33.208 2°41.228 22.5438 0.062481 0.346337 0.879931
2009-06-23 10:38:03 51°33.384 2°41.193 22.5489 0.062481 0.346375 0.879931
2009-06-23 10:39:04 51°33.567 2°41.132 22.5707 0.062481 0.346412 0.879931
2009-06-23 10:40:04 51°33.74 2°41.022 22.5727 0.062481 0.346475 0.879931
2009-06-23 10:41:04 51°33.901 2°40.861 22.5831 0.062481 0.3465 0.879931
2009-06-23 10:42:04 51°34.066 2°40.714 22.5485 0.062481 0.346537 0.879931
2009-06-23 10:43:03 51°34.24 2°40.698 22.5761 0.062481 0.346581 0.914755
2009-06-23 10:44:04 51°34.411 2°40.786 22.5999 0.062481 0.346631 0.914755
2009-06-23 10:45:04 51°34.574 2°40.898 22.5976 0.062481 0.346675 0.914755
2009-06-23 10:46:04 51°34.737 2°41.015 22.584 0.062481 0.346719 0.914755
2009-06-23 10:47:04 51°34.898 2°41.133 22.586 0.062481 0.346762 0.914755
2009-06-23 10:48:04 51°35.061 2°41.249 22.6247 0.062481 0.3468 0.914755
2009-06-23 10:49:03 51°35.222 2°41.36 22.6167 0.062378 0.346249 0.914755
2009-06-23 10:50:04 51°35.389 2°41.478 22.6107 0.062378 0.346274 0.949579
2009-06-23 10:51:03 51°35.55 2°41.594 22.6332 0.062378 0.346292 0.949579
2009-06-23 10:52:04 51°35.719 2°41.711 22.6199 0.062378 0.346317 0.949579
2009-06-23 10:53:04 51°35.883 2°41.831 22.6133 0.062378 0.346342 0.949579
2009-06-23 10:54:04 51°36.048 2°41.953 22.633 0.062378 0.346361 0.949579
2009-06-23 10:55:04 51°36.214 2°42.071 22.6581 0.062378 0.34638 0.949579
2009-06-23 10:56:04 51°36.379 2°42.193 22.6409 0.062378 0.346392 0.949579
2009-06-23 10:57:04 51°36.543 2°42.318 22.6657 0.062378 0.346405 0.949579
2009-06-23 10:58:03 51°36.71 2°42.429 22.6602 0.062378 0.346411 0.984403
2009-06-23 10:59:04 51°36.884 2°42.539 22.6669 0.062378 0.346424 0.984403
2009-06-23 11:00:04 51°37.051 2°42.641 22.6885 0.062378 0.34643 0.984403
2009-06-23 11:01:04 51°37.223 2°42.749 22.6363 0.062378 0.346443 0.949579
2009-06-23 11:02:04 51°37.397 2°42.858 22.6782 0.062378 0.346461 0.949579
2009-06-23 11:03:04 51°37.569 2°42.965 22.6729 0.062378 0.346474 0.984403
2009-06-23 11:04:04 51°37.741 2°43.077 22.682 0.062378 0.346493 0.984403
2009-06-23 11:05:04 51°37.915 2°43.195 22.6778 0.062378 0.346505 0.984403
2009-06-23 11:06:04 51°38.09 2°43.305 22.7003 0.062378 0.346518 0.984403
2009-06-23 11:07:04 51°38.265 2°43.419 22.7008 0.062378 0.34653 0.984403
2009-06-23 11:08:04 51°38.442 2°43.531 22.7142 0.062378 0.346549 0.984403
2009-06-23 11:09:04 51°38.619 2°43.64 22.7068 0.062378 0.346561 0.984403
2009-06-23 11:10:04 51°38.796 2°43.754 22.7139 0.062481 0.347164 0.984403
2009-06-23 11:11:04 51°38.973 2°43.873 22.7247 0.062481 0.347176 0.984403
2009-06-23 11:12:04 51°39.148 2°43.988 22.7077 0.062481 0.347189 0.984403
2009-06-23 11:13:04 51°39.325 2°44.097 22.733 0.062481 0.347195 0.984403
2009-06-23 11:14:03 51°39.499 2°44.208 22.7154 0.062481 0.347207 0.984403
2009-06-23 11:15:04 51°39.684 2°44.304 22.739 0.062481 0.347214 0.984403
2009-06-23 11:16:04 51°39.866 2°44.399 22.7468 0.062481 0.34722 0.984403
2009-06-23 11:17:04 51°40.048 2°44.495 22.7404 0.062481 0.347226 1.019227
2009-06-23 11:18:04 51°40.232 2°44.587 22.7321 0.062481 0.347233 1.019227
2009-06-23 11:19:04 51°40.415 2°44.678 22.7676 0.062481 0.347245 1.019227
2009-06-23 11:20:04 51°40.599 2°44.764 22.7577 0.062481 0.347251 1.019227
2009-06-23 11:21:04 51°40.783 2°44.857 22.7617 0.062481 0.347251 1.019227
2009-06-23 11:22:04 51°40.968 2°44.946 22.77 0.062481 0.347258 1.019227
2009-06-23 11:23:03 51°41.151 2°45.03 22.7743 0.062481 0.347264 1.019227
2009-06-23 11:24:04 51°41.338 2°45.119 22.7758 0.062481 0.34727 1.019227
2009-06-23 11:25:04 51°41.523 2°45.203 22.7975 0.062481 0.34727 1.019227
2009-06-23 11:26:04 51°41.711 2°45.261 22.7957 0.062481 0.34727 1.019227
2009-06-23 11:27:04 51°41.9 2°45.304 22.8081 0.062481 0.34727 1.054051
2009-06-23 11:28:04 51°42.089 2°45.291 22.7811 0.062481 0.347277 1.054051
2009-06-23 11:29:04 51°42.274 2°45.225 22.8074 0.062481 0.34727 1.054051
2009-06-23 11:30:04 51°42.418 2°45.043 22.7658 0.062481 0.347283 1.054051
2009-06-23 11:31:04 51°42.497 2°44.773 22.78 0.062481 0.347283 1.054051
2009-06-23 11:32:04 51°42.56 2°44.489 22.7774 0.062481 0.347283 1.054051
2009-06-23 11:33:04 51°42.579 2°44.199 22.8524 0.062481 0.347302 1.054051
2009-06-23 11:34:04 51°42.492 2°43.939 22.8219 0.062481 0.347308 1.054051
2009-06-23 11:35:04 51°42.349 2°43.733 22.8238 0.062481 0.347308 1.054051
2009-06-23 11:36:04 51°42.196 2°43.547 22.8193 0.062481 0.347314 1.088875
2009-06-23 11:37:04 51°42.035 2°43.382 22.8295 0.062481 0.347327 1.054051
2009-06-23 11:38:04 51°41.857 2°43.262 22.8397 0.062481 0.347327 1.088875
2009-06-23 11:39:04 51°41.679 2°43.139 22.8219 0.062481 0.347321 1.088875
2009-06-23 11:40:04 51°41.502 2°43.015 22.845 0.062584 0.347923 1.088875
2009-06-23 11:41:04 51°41.328 2°42.888 22.8264 0.062584 0.347929 1.088875
2009-06-23 11:42:04 51°41.155 2°42.758 22.8151 0.062584 0.347948 1.088875
2009-06-23 11:43:04 51°40.983 2°42.631 22.86 0.062584 0.347954 1.088875
2009-06-23 11:44:04 51°40.813 2°42.504 22.8501 0.062584 0.347961 1.088875
2009-06-23 11:45:04 51°40.641 2°42.383 22.8598 0.062584 0.347961 1.123699
2009-06-23 11:46:04 51°40.471 2°42.261 22.8672 0.062584 0.347961 1.123699
2009-06-23 11:47:04 51°40.301 2°42.139 22.858 0.062584 0.347967 1.123699
2009-06-23 11:48:04 51°40.133 2°42.017 22.8572 0.062584 0.347967 1.123699
2009-06-23 11:49:04 51°39.965 2°41.895 22.8831 0.062584 0.347973 1.123699
2009-06-23 11:50:04 51°39.798 2°41.771 22.8722 0.062584 0.34798 1.123699
2009-06-23 11:51:04 51°39.634 2°41.655 22.8829 0.062584 0.347986 1.123699
2009-06-23 11:52:04 51°39.469 2°41.537 22.8494 0.062584 0.348005 1.158523
2009-06-23 11:53:04 51°39.303 2°41.426 22.8877 0.062584 0.348005 1.158523
2009-06-23 11:54:04 51°39.138 2°41.321 22.8699 0.062584 0.348011 1.158523
2009-06-23 11:55:04 51°38.972 2°41.224 22.8858 0.062584 0.348011 1.158523
2009-06-23 11:56:04 51°38.802 2°41.128 22.8827 0.062584 0.348024 1.158523
2009-06-23 11:57:04 51°38.632 2°41.028 22.9006 0.062584 0.348036 1.158523
2009-06-23 11:58:04 51°38.459 2°40.938 22.8749 0.062584 0.348043 1.158523
2009-06-23 11:59:04 51°38.288 2°40.856 22.8757 0.062584 0.348062 1.193347
2009-06-23 12:00:04 51°38.115 2°40.774 22.8694 0.062584 0.348068 1.193347
2009-06-23 12:01:04 51°37.942 2°40.694 22.8765 0.062584 0.34808 1.193347
2009-06-23 12:02:04 51°37.769 2°40.617 22.8778 0.062687 0.348683 1.193347
2009-06-23 12:03:04 51°37.598 2°40.534 22.9258 0.062687 0.348683 1.193347
2009-06-23 12:04:04 51°37.426 2°40.45 22.9143 0.062687 0.348683 1.228171
2009-06-23 12:05:04 51°37.256 2°40.363 22.9025 0.062687 0.34869 1.228171
2009-06-23 12:06:04 51°37.086 2°40.273 22.8951 0.062687 0.348702 1.193347
2009-06-23 12:07:04 51°36.916 2°40.177 22.9343 0.062687 0.34869 1.228171
2009-06-23 12:08:04 51°36.746 2°40.08 22.9407 0.062687 0.348683 1.228171
2009-06-23 12:09:04 51°36.575 2°39.986 22.9351 0.062687 0.348683 1.228171
2009-06-23 12:10:04 51°36.405 2°39.892 22.9072 0.062687 0.34869 1.228171
2009-06-23 12:11:04 51°36.237 2°39.793 22.9302 0.062687 0.348696 1.262995
2009-06-23 12:12:04 51°36.068 2°39.697 22.9386 0.062687 0.34869 1.262995
2009-06-23 12:13:04 51°35.901 2°39.598 22.9472 0.062687 0.348702 1.262995
2009-06-23 12:14:04 51°35.734 2°39.5 22.9131 0.062687 0.348715 1.262995
2009-06-23 12:15:04 51°35.568 2°39.406 22.9305 0.062687 0.348709 1.262995
2009-06-23 12:16:04 51°35.403 2°39.307 22.9198 0.062687 0.348715 1.262995
2009-06-23 12:17:04 51°35.241 2°39.206 22.9604 0.062687 0.348715 1.262995
2009-06-23 12:18:04 51°35.076 2°39.117 22.9613 0.062687 0.348727 1.262995
2009-06-23 12:19:04 51°34.91 2°39.035 22.9547 0.062687 0.348727 1.262995
2009-06-23 12:20:04 51°34.743 2°38.957 22.9338 0.062687 0.348734 1.297819
2009-06-23 12:21:04 51°34.576 2°38.879 22.9709 0.062687 0.348721 1.297819
2009-06-23 12:22:04 51°34.409 2°38.801 22.9706 0.062687 0.348727 1.297819
2009-06-23 12:23:04 51°34.241 2°38.73 22.9858 0.062687 0.348721 1.297819
2009-06-23 12:24:04 51°34.075 2°38.653 22.9646 0.062687 0.348727 1.297819
2009-06-23 12:25:04 51°33.908 2°38.58 22.9761 0.06279 0.349318 1.297819
2009-06-23 12:26:04 51°33.741 2°38.506 22.9836 0.06279 0.349312 1.297819
2009-06-23 12:27:04 51°33.574 2°38.431 22.9671 0.06279 0.349318 1.297819
2009-06-23 12:28:04 51°33.406 2°38.358 22.9998 0.06279 0.349312 1.297819
2009-06-23 12:29:04 51°33.239 2°38.284 22.9969 0.06279 0.349312 1.297819
2009-06-23 12:30:04 51°33.071 2°38.21 22.9949 0.06279 0.349312 1.297819
2009-06-23 12:31:04 51°32.902 2°38.136 23.0135 0.06279 0.349312 1.297819
2009-06-23 12:32:04 51°32.735 2°38.064 22.9998 0.06279 0.349318 1.297819
2009-06-23 12:33:04 51°32.566 2°37.995 22.9797 0.06279 0.349318 1.297819
2009-06-23 12:34:04 51°32.397 2°37.926 22.9689 0.06279 0.349312 1.332643
2009-06-23 12:35:04 51°32.229 2°37.86 23.0122 0.06279 0.349318 1.297819
2009-06-23 12:36:04 51°32.061 2°37.793 23.0313 0.06279 0.349318 1.332643
2009-06-23 12:37:04 51°31.892 2°37.726 23.0187 0.06279 0.349318 1.297819
2009-06-23 12:38:04 51°31.725 2°37.658 22.9754 0.06279 0.349324 1.297819
2009-06-23 12:39:04 51°31.557 2°37.59 23.0242 0.06279 0.349324 1.297819
2009-06-23 12:40:04 51°31.388 2°37.529 23.0142 0.06279 0.349331 1.297819
2009-06-23 12:41:04 51°31.221 2°37.46 23.0131 0.06279 0.349337 1.297819
2009-06-23 12:42:04 51°31.054 2°37.394 23.0172 0.06279 0.349331 1.297819
2009-06-23 12:43:04 51°30.886 2°37.329 23.0351 0.06279 0.349337 1.297819
2009-06-23 12:44:04 51°30.712 2°37.304 23.0249 0.06279 0.349331 1.297819
2009-06-23 12:45:04 51°30.537 2°37.291 23.0484 0.06279 0.349337 1.297819
2009-06-23 12:46:04 51°30.361 2°37.281 23.0519 0.06279 0.349343 1.297819
2009-06-23 12:47:04 51°30.185 2°37.273 23.0459 0.06279 0.349343 1.297819
2009-06-23 12:48:04 51°30.007 2°37.263 23.0253 0.06279 0.34935 1.332643
2009-06-23 12:49:04 51°29.83 2°37.254 23.061 0.06279 0.349337 1.297819
2009-06-23 12:50:04 51°29.655 2°37.242 23.0614 0.06279 0.349343 1.297819
2009-06-23 12:51:04 51°29.479 2°37.228 23.062 0.06279 0.349337 1.297819
2009-06-23 12:52:04 51°29.305 2°37.213 23.0738 0.06279 0.349343 1.297819
2009-06-23 12:53:04 51°29.128 2°37.235 23.0819 0.06279 0.349337 1.297819
2009-06-23 12:54:04 51°28.952 2°37.266 23.071 0.06279 0.349337 1.297819
2009-06-23 12:55:04 51°28.775 2°37.292 23.0836 0.06279 0.349337 1.297819
2009-06-23 12:56:04 51°28.599 2°37.319 23.0604 0.06279 0.349337 1.297819
2009-06-23 12:57:04 51°28.428 2°37.389 23.1003 0.06279 0.34935 1.297819
2009-06-23 12:58:04 51°28.276 2°37.558 23.0993 0.06279 0.349343 1.297819
2009-06-23 12:59:04 51°28.126 2°37.747 23.0882 0.062893 0.349921 1.297819
2009-06-23 13:00:04 51°27.975 2°37.934 23.0909 0.062893 0.349921 1.297819
2009-06-23 13:01:04 51°27.826 2°38.116 23.1024 0.062893 0.349921 1.262995
2009-06-23 13:02:04 51°27.676 2°38.298 23.1045 0.062893 0.349915 1.262995
2009-06-23 13:03:04 51°27.539 2°38.507 23.1424 0.062893 0.349921 1.262995
2009-06-23 13:04:04 51°27.433 2°38.776 23.0887 0.062893 0.349915 1.262995
2009-06-23 13:05:04 51°27.328 2°39.048 23.0903 0.062893 0.349908 1.262995
2009-06-23 13:06:04 51°27.218 2°39.313 23.1188 0.062893 0.349908 1.262995
2009-06-23 13:07:04 51°27.117 2°39.587 23.1203 0.062893 0.349908 1.262995
2009-06-23 13:08:04 51°27.033 2°39.875 23.1159 0.062893 0.349908 1.262995
2009-06-23 13:09:04 51°26.95 2°40.158 23.1158 0.062893 0.349908 1.228171
2009-06-23 13:10:04 51°26.855 2°40.43 23.1176 0.062893 0.349902 1.228171
2009-06-23 13:11:04 51°26.75 2°40.691 23.1141 0.062893 0.349908 1.262995
2009-06-23 13:12:04 51°26.652 2°40.961 23.1196 0.062893 0.349908 1.262995
2009-06-23 13:13:04 51°26.557 2°41.235 23.1208 0.062893 0.349908 1.262995
2009-06-23 13:14:04 51°26.454 2°41.496 23.1268 0.062893 0.349908 1.228171
2009-06-23 13:15:04 51°26.331 2°41.729 23.0945 0.062893 0.349915 1.228171
2009-06-23 13:16:04 51°26.188 2°41.919 23.132 0.062893 0.349908 1.228171
2009-06-23 13:17:04 51°26.034 2°42.087 23.1554 0.062893 0.349908 1.228171
2009-06-23 13:18:04 51°25.88 2°42.25 23.1223 0.062893 0.349915 1.228171
2009-06-23 13:19:04 51°25.726 2°42.416 23.1465 0.062893 0.349908 1.228171
2009-06-23 13:20:04 51°25.574 2°42.585 23.1532 0.062893 0.349908 1.228171
2009-06-23 13:21:04 51°25.418 2°42.739 23.1594 0.062893 0.349921 1.228171
2009-06-23 13:22:04 51°25.262 2°42.889 23.1594 0.062893 0.349921 1.262995
2009-06-23 13:23:04 51°25.109 2°43.043 23.1751 0.062893 0.349915 1.262995
2009-06-23 13:24:04 51°24.958 2°43.203 23.1701 0.062893 0.349921 1.262995
2009-06-23 13:25:04 51°24.805 2°43.362 23.1544 0.062893 0.349921 1.262995
2009-06-23 13:26:04 51°24.65 2°43.52 23.1541 0.062893 0.349921 1.297819
2009-06-23 13:27:04 51°24.496 2°43.681 23.1858 0.062893 0.349921 1.297819
2009-06-23 13:28:04 51°24.34 2°43.84 23.1959 0.062893 0.349921 1.332643
2009-06-23 13:29:04 51°24.184 2°44.002 23.1855 0.062893 0.349921 1.332643
2009-06-23 13:30:04 51°24.027 2°44.162 23.1841 0.062893 0.349927 1.332643
2009-06-23 13:31:04 51°23.87 2°44.325 23.2007 0.062893 0.349934 1.367467
2009-06-23 13:32:04 51°23.711 2°44.487 23.1962 0.062893 0.349927 1.367467
2009-06-23 13:33:04 51°23.551 2°44.65 23.1988 0.062893 0.349927 1.402292
2009-06-23 13:34:04 51°23.39 2°44.806 23.1977 0.062893 0.349934 1.402292
2009-06-23 13:35:04 51°23.23 2°44.969 23.2116 0.062893 0.349934 1.437116
2009-06-23 13:36:04 51°23.071 2°45.132 23.221 0.062893 0.349934 1.47194
2009-06-23 13:37:04 51°22.912 2°45.293 23.2207 0.062893 0.349934 1.47194
2009-06-23 13:38:04 51°22.76 2°45.45 23.2273 0.062893 0.34994 1.47194
2009-06-23 13:39:04 51°22.608 2°45.604 23.2201 0.062893 0.349946 1.506764
2009-06-23 13:40:04 51°22.457 2°45.759 23.2106 0.062893 0.349946 1.506764
2009-06-23 13:41:04 51°22.304 2°45.917 23.2261 0.062893 0.34994 1.541588
2009-06-23 13:42:04 51°22.149 2°46.077 23.2458 0.062893 0.34994 1.541588
2009-06-23 13:43:04 51°21.994 2°46.238 23.243 0.062893 0.349934 1.541588
2009-06-23 13:44:04 51°21.837 2°46.396 23.244 0.062893 0.34994 1.576412
2009-06-23 13:45:04 51°21.682 2°46.555 23.2402 0.062893 0.349934 1.576412
2009-06-23 13:46:04 51°21.525 2°46.716 23.2615 0.062995 0.350524 1.576412
2009-06-23 13:47:04 51°21.369 2°46.88 23.2738 0.062995 0.350524 1.576412
2009-06-23 13:48:04 51°21.216 2°47.057 23.2669 0.062995 0.350511 1.576412
2009-06-23 13:49:04 51°21.062 2°47.241 23.2814 0.062995 0.350518 1.611236
2009-06-23 13:50:04 51°20.907 2°47.422 23.2928 0.062995 0.350518 1.611236
2009-06-23 13:51:04 51°20.75 2°47.604 23.2654 0.062995 0.350524 1.611236
2009-06-23 13:52:04 51°20.597 2°47.795 23.288 0.062995 0.350505 1.576412
2009-06-23 13:53:04 51°20.447 2°47.995 23.3091 0.062995 0.350505 1.576412
2009-06-23 13:54:04 51°20.297 2°48.198 23.2976 0.062995 0.350505 1.576412
2009-06-23 13:55:04 51°20.153 2°48.412 23.2813 0.062995 0.350505 1.82018
2009-06-23 13:56:04 51°20.012 2°48.63 23.3038 0.062995 0.350505 1.750532
2009-06-23 13:57:04 51°19.871 2°48.836 23.3227 0.062995 0.350505 1.785356
2009-06-23 13:58:04 51°19.728 2°49.035 23.3857 0.062995 0.350511 1.855004
2009-06-23 13:59:04 51°19.581 2°49.228 23.318 0.062995 0.350505 1.889828
2009-06-23 14:00:04 51°19.433 2°49.426 23.337 0.062995 0.350505 1.959476
2009-06-23 14:01:04 51°19.286 2°49.626 23.3423 0.062995 0.350505 1.9943
2009-06-23 14:02:04 51°19.136 2°49.822 23.3344 0.062995 0.350505 2.029124
2009-06-23 14:03:04 51°18.984 2°50.01 23.3271 0.062995 0.350499 2.063949
2009-06-23 14:04:04 51°18.834 2°50.201 23.3402 0.062995 0.350499 2.098773
2009-06-23 14:05:04 51°18.683 2°50.392 23.3342 0.062995 0.350505 2.133597
2009-06-23 14:06:04 51°18.534 2°50.58 23.3511 0.062995 0.350499 2.168421
2009-06-23 14:07:04 51°18.387 2°50.767 23.3755 0.062995 0.350492 2.168421
2009-06-23 14:08:04 51°18.239 2°50.956 23.3747 0.062995 0.350492 2.203245
2009-06-23 14:09:04 51°18.091 2°51.142 23.3507 0.062995 0.350499 2.238069
2009-06-23 14:10:04 51°17.943 2°51.33 23.3866 0.062995 0.350492 2.272893
2009-06-23 14:11:04 51°17.797 2°51.517 23.3837 0.062995 0.35048 2.272893
2009-06-23 14:12:04 51°17.65 2°51.701 23.3971 0.062995 0.350486 2.481837
2009-06-23 14:13:04 51°17.503 2°51.886 23.3979 0.062995 0.35048 2.516661
2009-06-23 14:14:04 51°17.356 2°52.075 23.4404 0.062995 0.35048 2.586309
2009-06-23 14:15:04 51°17.208 2°52.259 23.4267 0.062995 0.350486 2.655957
2009-06-23 14:16:04 51°17.058 2°52.441 23.3898 0.062995 0.350473 2.690782
2009-06-23 14:17:04 51°16.904 2°52.617 23.4246 0.062995 0.350473 2.76043
2009-06-23 14:18:04 51°16.753 2°52.795 23.4168 0.062995 0.350473 2.76043
2009-06-23 14:19:04 51°16.598 2°52.973 23.431 0.062995 0.350473 2.795254
2009-06-23 14:20:04 51°16.446 2°53.154 23.4138 0.062995 0.350467 2.830078
2009-06-23 14:21:04 51°16.287 2°53.317 23.4327 0.062995 0.350467 2.864902
2009-06-23 14:22:04 51°16.126 2°53.474 23.4461 0.062995 0.350467 2.899726
2009-06-23 14:23:04 51°15.966 2°53.634 23.4516 0.062995 0.350461 2.899726
2009-06-23 14:24:04 51°15.804 2°53.791 23.426 0.062995 0.350461 2.93455
2009-06-23 14:25:04 51°15.636 2°53.93 23.4643 0.062995 0.350461 2.93455
2009-06-23 14:26:04 51°15.475 2°54.083 23.4696 0.062995 0.350448 2.969374
2009-06-23 14:27:04 51°15.318 2°54.246 23.4886 0.062995 0.350461 2.969374
2009-06-23 14:28:04 51°15.143 2°54.329 23.467 0.063098 0.351045 3.004198
2009-06-23 14:29:04 51°14.962 2°54.387 23.4557 0.063098 0.351026 3.004198
2009-06-23 14:30:04 51°14.787 2°54.473 23.4924 0.063098 0.351026 3.004198
2009-06-23 14:31:04 51°14.634 2°54.645 23.4985 0.063098 0.351007 3.039022
2009-06-23 14:32:04 51°14.493 2°54.847 23.5101 0.063098 0.351 3.039022
2009-06-23 14:33:04 51°14.355 2°55.053 23.5342 0.063098 0.351013 3.039022
2009-06-23 14:34:04 51°14.243 2°55.265 23.4926 0.063098 0.351 3.073846
2009-06-23 14:35:04 51°14.127 2°55.407 23.4852 0.063098 0.350994 3.073846
2009-06-23 14:36:04 51°14.007 2°55.494 23.512 0.063098 0.350994 3.073846
2009-06-23 14:37:04 51°13.901 2°55.57 23.5205 0.063098 0.350988 3.073846
2009-06-23 14:38:04 51°13.802 2°55.646 23.5317 0.063098 0.350981 3.10867
2009-06-23 14:39:04 51°13.73 2°55.757 23.5316 0.063098 0.350975 3.10867
2009-06-23 14:40:04 51°13.689 2°55.85 23.5379 0.063098 0.350962 3.10867